Weather History for Jacksonville, TX

Change the Weather History Date:

Monday, March 18, 2013

  Actual Average (KTYR) Record (KTYR)
Temperature  
Mean Temperature 68 °F 57 °F  
Max Temperature 78 °F 67 °F 89 °F (1908)
Min Temperature 57 °F 47 °F 25 °F (1980)
Degree Days  
Heating Degree Days 0 8  
Month to date heating degree days 179  
Since 1 July heating degree days 2071  
Cooling Degree Days 2 1  
Month to date cooling degree days 6  
Year to date cooling degree days 18  
Growing Degree Days 18 (Base 50)    
Moisture  
Dew Point 58 °F    
Average Humidity 75    
Maximum Humidity 97    
Minimum Humidity 49    
Precipitation  
Precipitation 0.00 in 0.14 in 2.05 in (1969)
Month to date precipitation 2.48  
Year to date precipitation 9.35  
Snow  
Snow 0.00 in - - ()
Month to date snowfall  
Since 1 July snowfall  
Snow Depth -    
Sea Level Pressure  
Sea Level Pressure 29.83 in    
Wind  
Wind Speed 9 mph (WSW)    
Max Wind Speed 15 mph    
Max Gust Speed 23 mph    
Visibility 8 miles    
Events      
T = Trace of Precipitation, MM = Missing Value Source: NWS Daily Summary

Daily Weather History Graph

Daily Weather History Graph

Search for Another Location

Airport:

Trip Planner

Search our weather history database for the weather conditions in past years. The results will help you decide how hot, cold, wet, or windy it might be!

Date:

Astronomy

Mar. 18, 2013 Rise Set
Actual Time 7:26 AM CDT 7:31 PM CDT
Civil Twilight 7:02 AM CDT 7:55 PM CDT
Nautical Twilight 6:34 AM CDT 8:23 PM CDT
Astronomical Twilight 6:05 AM CDT 8:52 PM CDT
Moon 11:47 AM CDT (3/18) 1:11 AM CDT (3/18)
Length of Visible Light 12h 53m
Length of Day
12h 04m
Waxing Crescent, 41% of the Moon is Illuminated
Mar 18
Waxing Crescent
Mar 19
First Quarter
Mar 27
Full
Apr 2
Last Quarter
Apr 10
New

Hourly Weather History & Observations

Time (CDT) Temp. Dew Point Humidity Pressure Visibility Wind Dir Wind Speed Gust Speed Precip Events Conditions
12:15 AM 66.0 °F 63.1 °F 90% 29.76 in 10.0 mi South 5.8 mph - N/A   Mostly Cloudy
12:35 AM 65.5 °F 63.1 °F 92% 29.75 in 7.0 mi South 8.1 mph - N/A   Scattered Clouds
12:55 AM 64.8 °F 63.0 °F 94% 29.75 in 7.0 mi South 10.4 mph - N/A   Clear
1:15 AM 64.4 °F 63.0 °F 95% 29.75 in 7.0 mi South 10.4 mph - N/A   Clear
1:35 AM 63.9 °F 62.8 °F 96% 29.75 in 7.0 mi South 10.4 mph - N/A   Clear
1:55 AM 63.9 °F 63.0 °F 97% 29.75 in 7.0 mi South 11.5 mph - N/A   Mostly Cloudy
2:15 AM 64.0 °F 63.0 °F 96% 29.75 in 7.0 mi South 10.4 mph - N/A   Overcast
2:35 AM 64.2 °F 63.1 °F 96% 29.75 in 7.0 mi South 10.4 mph 17.3 mph N/A   Overcast
2:55 AM 64.4 °F 63.1 °F 96% 29.76 in 7.0 mi South 8.1 mph 16.1 mph N/A   Overcast
3:15 AM 64.4 °F 63.0 °F 95% 29.77 in 7.0 mi South 9.2 mph - N/A   Overcast
3:35 AM 64.4 °F 63.0 °F 95% 29.77 in 7.0 mi SSW 5.8 mph - N/A   Overcast
3:55 AM 64.4 °F 63.0 °F 95% 29.76 in 7.0 mi SSW 6.9 mph - N/A   Overcast
4:15 AM 64.0 °F 62.6 °F 95% 29.76 in 5.0 mi SSW 6.9 mph - N/A   Overcast
4:35 AM 64.2 °F 62.8 °F 95% 29.76 in 7.0 mi SSW 9.2 mph - N/A   Overcast
4:55 AM 64.4 °F 62.8 °F 94% 29.75 in 7.0 mi South 12.7 mph 20.7 mph N/A   Overcast
5:15 AM 64.4 °F 62.8 °F 94% 29.74 in 5.0 mi SSW 10.4 mph 18.4 mph N/A   Overcast
5:35 AM 64.4 °F 63.0 °F 95% 29.75 in 5.0 mi SSW 13.8 mph 19.6 mph N/A   Overcast
5:55 AM 64.6 °F 62.8 °F 94% 29.76 in 7.0 mi South 11.5 mph 20.7 mph N/A   Overcast
6:15 AM 64.9 °F 62.6 °F 92% 29.77 in 7.0 mi SSW 12.7 mph 20.7 mph N/A   Overcast
6:35 AM 64.9 °F 62.6 °F 92% 29.77 in 7.0 mi South 13.8 mph 23.0 mph N/A   Overcast
6:55 AM 64.9 °F 62.6 °F 92% 29.78 in 7.0 mi South 13.8 mph 20.7 mph N/A   Overcast
7:15 AM 65.3 °F 62.6 °F 91% 29.78 in 7.0 mi South 12.7 mph 19.6 mph N/A   Overcast
7:35 AM 65.1 °F 62.6 °F 92% 29.78 in 7.0 mi South 11.5 mph 17.3 mph N/A   Overcast
7:55 AM 65.3 °F 62.6 °F 91% 29.79 in 7.0 mi South 15.0 mph - N/A   Overcast
8:15 AM 65.3 °F 62.8 °F 92% 29.79 in 7.0 mi South 12.7 mph 19.6 mph N/A   Overcast
8:35 AM 65.3 °F 62.8 °F 92% 29.78 in 7.0 mi South 11.5 mph 21.9 mph N/A   Overcast
8:55 AM 65.7 °F 63.0 °F 91% 29.79 in 7.0 mi South 10.4 mph 20.7 mph N/A   Overcast
9:15 AM 66.2 °F 62.8 °F 89% 29.79 in 7.0 mi SSW 12.7 mph 20.7 mph N/A   Overcast
9:35 AM 66.4 °F 63.0 °F 89% 29.79 in 7.0 mi South 12.7 mph 18.4 mph N/A   Overcast
9:55 AM 66.6 °F 63.1 °F 89% 29.80 in 7.0 mi SSW 9.2 mph - N/A   Overcast
10:15 AM 67.3 °F 63.1 °F 87% 29.82 in 7.0 mi SW 10.4 mph 18.4 mph N/A   Overcast
10:35 AM 68.0 °F 63.5 °F 85% 29.84 in 7.0 mi WSW 11.5 mph 17.3 mph N/A   Overcast
10:55 AM 69.8 °F 63.3 °F 80% 29.85 in 7.0 mi WSW 12.7 mph 18.4 mph N/A   Overcast
11:15 AM 70.5 °F 63.0 °F 77% 29.84 in 7.0 mi SW 8.1 mph - N/A   Mostly Cloudy
11:35 AM 73.4 °F 62.6 °F 69% 29.84 in 7.0 mi WSW 9.2 mph 16.1 mph N/A   Mostly Cloudy
11:55 AM 72.1 °F 61.9 °F 70% 29.83 in 10.0 mi SW 9.2 mph - N/A   Overcast
12:15 PM 73.2 °F 62.1 °F 68% 29.84 in 10.0 mi WSW 8.1 mph - N/A   Mostly Cloudy
12:35 PM 74.1 °F 61.5 °F 65% 29.84 in 10.0 mi West 9.2 mph - N/A   Mostly Cloudy
12:55 PM 74.7 °F 61.0 °F 62% 29.83 in 10.0 mi West 3.5 mph - N/A   Mostly Cloudy
3:35 PM 78.1 °F 57.9 °F 50% 29.80 in 10.0 mi WNW 12.7 mph - N/A   Clear
3:55 PM 77.7 °F 58.5 °F 51% 29.81 in 10.0 mi NNW 8.1 mph - N/A   Clear
4:15 PM 77.0 °F 58.1 °F 52% 29.81 in 10.0 mi WNW 10.4 mph - N/A   Clear
4:35 PM 76.6 °F 57.9 °F 52% 29.82 in 10.0 mi NW 5.8 mph - N/A   Clear
4:55 PM 76.6 °F 57.0 °F 51% 29.82 in 10.0 mi NNW 10.4 mph - N/A   Clear
5:15 PM 76.8 °F 56.5 °F 49% 29.83 in 10.0 mi NW 8.1 mph - N/A   Clear
5:35 PM 74.7 °F 55.4 °F 51% 29.84 in 10.0 mi NNW 6.9 mph - N/A   Clear
5:55 PM 72.9 °F 54.3 °F 52% 29.85 in 10.0 mi NNW 9.2 mph - N/A   Clear
6:15 PM 72.5 °F 53.4 °F 51% 29.86 in 10.0 mi NNW 6.9 mph - N/A   Clear
6:35 PM 70.5 °F 52.2 °F 52% 29.87 in 10.0 mi NNW 6.9 mph - N/A   Clear
6:55 PM 69.4 °F 50.9 °F 52% 29.87 in 10.0 mi NNW 8.1 mph - N/A   Clear
7:15 PM 68.9 °F 50.0 °F 51% 29.89 in 10.0 mi NNW 4.6 mph - N/A   Clear
7:35 PM 67.8 °F 49.8 °F 52% 29.90 in 10.0 mi NNW 4.6 mph - N/A   Clear
7:55 PM 66.6 °F 48.6 °F 52% 29.91 in 10.0 mi NNW 8.1 mph - N/A   Clear
8:15 PM 65.7 °F 47.7 °F 52% 29.92 in 10.0 mi North 8.1 mph - N/A   Clear
8:35 PM 64.6 °F 47.5 °F 54% 29.93 in 10.0 mi North 6.9 mph - N/A   Clear
8:55 PM 63.7 °F 46.8 °F 54% 29.94 in 10.0 mi North 5.8 mph - N/A   Clear
9:15 PM 63.0 °F 45.7 °F 53% 29.94 in 10.0 mi North 5.8 mph - N/A   Clear
9:35 PM 61.7 °F 45.5 °F 55% 29.95 in 10.0 mi NNE 5.8 mph - N/A   Clear
9:55 PM 61.0 °F 45.3 °F 56% 29.96 in 10.0 mi NNE 5.8 mph - N/A   Clear
10:15 PM 59.9 °F 45.5 °F 59% 29.97 in 10.0 mi North 5.8 mph - N/A   Clear
10:35 PM 59.4 °F 45.0 °F 59% 29.99 in 10.0 mi North 6.9 mph - N/A   Clear
10:55 PM 59.2 °F 44.2 °F 58% 30.01 in 10.0 mi North 9.2 mph - N/A   Clear
11:15 PM 58.5 °F 43.5 °F 58% 30.01 in 10.0 mi North 10.4 mph - N/A   Clear
11:35 PM 57.6 °F 42.8 °F 58% 30.01 in 10.0 mi NNE 11.5 mph 16.1 mph N/A   Clear
11:55 PM 57.2 °F 42.1 °F 57% 30.01 in 10.0 mi NNE 10.4 mph 16.1 mph N/A   Clear